• Processing (Info)

  • MPEC 2000-P04 : 2000 OG8

    The following Minor Planet Electronic Circular may be linked-to from your own Web pages, but must not otherwise be redistributed electronically.

    A form allowing access to any MPEC is at the bottom of this page.


    Read MPEC 2000-P03 Read MPEC 2000-P05


    M.P.E.C. 2000-P04                                Issued 2000 Aug. 1, 15:37 UT
    
         The Minor Planet Electronic Circulars contain information on unusual
             minor planets and routine data on comets.  They are published
       on behalf of Commission 20 of the International Astronomical Union by the
              Minor Planet Center, Smithsonian Astrophysical Observatory,
                              Cambridge, MA 02138, U.S.A.
    
                 Prepared using the Tamkin Foundation Computer Network
    
                 BMARSDEN@CFA.HARVARD.EDU or GWILLIAMS@CFA.HARVARD.EDU
              URL http://cfa-www.harvard.edu/iau/mpc.html  ISSN 1523-6714
    
                                       2000 OG8
    
    Observations:
         K00O08G  C2000 07 23.32816 21 34 42.77 -10 56 06.7          18.2        704
         K00O08G  C2000 07 23.34160 21 34 42.86 -10 55 54.3          18.4        704
         K00O08G  C2000 07 23.35504 21 34 42.97 -10 55 42.3          18.6        704
         K00O08G  C2000 07 23.36853 21 34 43.06 -10 55 32.0          18.8        704
         K00O08G* C2000 07 29.37627 21 35 44.24 -09 23 55.1          17.1 R      699
         K00O08G  C2000 07 29.39556 21 35 44.23 -09 23 36.2                      699
         K00O08G  C2000 07 29.41490 21 35 44.21 -09 23 17.6                      699
         K00O08G  C2000 07 29.43423 21 35 44.18 -09 22 59.0                      699
         K00O08G  C2000 07 30.29746 21 35 49.69 -09 09 05.0          18.0        704
         K00O08G  C2000 07 30.31080 21 35 49.73 -09 08 52.8          17.9        704
         K00O08G  C2000 07 30.32410 21 35 49.70 -09 08 39.3          17.8        704
         K00O08G  C2000 07 30.33730 21 35 49.62 -09 08 27.2          17.5        704
         K00O08G  C2000 07 30.35049 21 35 49.63 -09 08 13.7          17.5        704
         K00O08G  C2000 07 31.90463 21 35 56.21 -08 42 44.4          16.4 R      587
         K00O08G  C2000 07 31.90921 21 35 56.08 -08 42 40.9                      557
         K00O08G  C2000 07 31.91516 21 35 56.07 -08 42 35.0                      557
         K00O08G  C2000 07 31.91714 21 35 56.07 -08 42 33.0                      557
         K00O08G  C2000 07 31.91822 21 35 56.06 -08 42 31.3                      118
         K00O08G  C2000 07 31.91912 21 35 56.07 -08 42 31.2          17.8 V      557
         K00O08G  C2000 07 31.92078 21 35 56.21 -08 42 28.2                      587
         K00O08G  C2000 07 31.92645 21 35 56.01 -08 42 22.8                      118
         K00O08G IC2000 07 31.93386 21 35 56.12 -08 42 15.8          18.2        120
         K00O08G  C2000 07 31.93521 21 35 56.00 -08 42 14.6          16.1 R      118
         K00O08G  C2000 07 31.94730 21 35 56.04 -08 42 02.3                      120
         K00O08G  C2000 07 31.95862 21 35 56.00 -08 41 51.7                      046
         K00O08G  C2000 07 31.95999 21 35 56.00 -08 41 50.4                      046
         K00O08G  C2000 07 31.96128 21 35 55.97 -08 41 49.2                      046
         K00O08G  C2000 07 31.96169 21 35 55.95 -08 41 48.8                      120
         K00O08G  C2000 07 31.96251 21 35 55.97 -08 41 48.0                      046
         K00O08G  C2000 07 31.96376 21 35 56.01 -08 41 46.4          16.7 R      046
         K00O08G  C2000 08 01.20081 21 35 56.06 -08 37 26.8          17.3 V      860
         K00O08G  C2000 08 01.22970 21 35 55.95 -08 36 58.6          17.9 V      860
         K00O08G  C2000 08 01.24841 21 35 56.90 -08 37 00.1          17.9 V      739
         K00O08G  C2000 08 01.25168 21 35 56.84 -08 36 56.1          17.9 V      739
         K00O08G  C2000 08 01.25659 21 35 56.81 -08 36 51.3          17.9 V      739
         K00O08G  C2000 08 01.37116 21 35 56.48 -08 34 54.2                      711
         K00O08G  C2000 08 01.37832 21 35 56.45 -08 34 47.1                      711
         K00O08G  C2000 08 01.38569 21 35 56.41 -08 34 39.6                      711
         K00O08G 1C2000 08 01.40800 21 35 56.75 -08 34 21.7                      658
         K00O08G 1C2000 08 01.41427 21 35 56.74 -08 34 15.1                      658
    
    Observer details:
    046 Klet.  Observer M. Tichy.  0.57-m f/5.2 reflector + CCD.
    118 Modra.  Observers A. Galad, P. Koleny.  0.6-m f/5.5 reflector + CCD.
    120 Visnjan.  Observers K. Klemencic, S. Pintaric, T. Bedekovic, M. Rejkuba,
        K. Korlevic.  Measurers K. Korlevic, D. Dermadi, G. Malic, B. Lukic,
        M. Juric.  0.41-m f/4.3 reflector + CCD.
    557 Ondrejov.  Observer L. Sarounova.  0.65-m f/3.6 reflector + CCD.
    587 Sormano.  Observer F. Manca.  0.5-m reflector + CCD.
    658 National Research Council of Canada.  Observer D. D. Balam.  1.82-m
        Plaskett reflector + CCD.
    699 Lowell Observatory-LONEOS.  Observer W. D. Ferris.  Measurer B. W. Koehn.
        0.59-m LONEOS Schmidt + CCD.
    704 Lincoln Laboratory ETS, New Mexico.  Observers M. Blythe, F. Shelly,
        M. Bezpalko, M. Elowitz, R. Huber, L. Manguso.  Measurers J. Stuart,
        R. Sayer, J. B. Evans, H. Viggh.  1.0-m f/2.15 reflector + CCD.
    711 McDonald Observatory.  Observers P. J. Shelus, J. G. Ries.  0.76-m
        reflector + CCD.
    739 Sunflower Observatory, Olathe.  Observer L. Robinson.  0.25-m
        Schmidt-Cassegrain + CCD.
    860 Valinhos.  Observer P. R. Holvorcem, J. Camargo.  0.36-m f/3.6
        Schmidt-Cassegrain + CCD.
    
    Orbital elements:
    2000 OG8
    Epoch 2000 July 15.0 TT = JDT 2451740.5                 Williams
    M 340.85561              (2000.0)            P               Q
    n   0.23052592     Peri.   71.17881     +0.98884901     -0.12421212
    a   2.6342453      Node   295.88643     +0.07688516     +0.89825715
    e   0.5366272      Incl.    5.23924     +0.12753941     +0.42155122
    P   4.28           H   18.1           G   0.15
    From 40 observations 2000 July 23-Aug. 1.
    
    Ephemeris:
    2000 OG8                 a,e,i = 2.63, 0.54, 5                   q = 1.2206
    Date    TT    R. A. (2000) Decl.     Delta      r     Elong.  Phase     V
    2000 07 25    21 35.08   -10 31.3    0.468    1.463   159.4    14.1    18.1
    2000 08 04    21 35.99   -07 49.8    0.401    1.408   166.7     9.5    17.5
    2000 08 14    21 35.32   -04 42.1    0.348    1.358   170.4     7.2    17.0
    2000 08 24    21 34.47   -01 09.8    0.309    1.314   166.3    10.5    16.8
    2000 09 03    21 35.41   +02 38.2    0.283    1.277   159.0    16.5    16.8
    2000 09 13    21 40.54   +06 29.0    0.267    1.248   152.0    22.3    16.8
    2000 09 23    21 51.56   +10 07.7    0.262    1.230   146.3    26.9    16.8
    2000 10 03    22 09.25   +13 19.6    0.265    1.221   142.3    30.0    17.0
    2000 10 13    22 33.28   +15 55.5    0.277    1.223   140.0    31.6    17.1
    2000 10 23    23 01.96   +17 50.1    0.300    1.236   138.7    32.1    17.3
    2000 11 02    23 33.16   +19 04.4    0.333    1.258   137.6    32.1    17.6
    2000 11 12    00 04.88   +19 47.8    0.378    1.290   136.3    32.0    17.9
    2000 11 22    00 35.56   +20 11.5    0.437    1.330   134.3    32.1    18.3
    2000 12 02    01 04.56   +20 25.9    0.509    1.377   131.4    32.5    18.7
    2000 12 12    01 31.78   +20 39.3    0.595    1.429   127.9    32.9    19.1
    2000 12 22    01 57.35   +20 55.2    0.694    1.486   123.8    33.4    19.6
    2001 01 01    02 21.62   +21 14.9    0.806    1.546   119.2    33.7    20.0
    2001 01 11    02 44.89   +21 38.1    0.930    1.609   114.5    33.8    20.4
    2001 01 21    03 07.38   +22 03.3    1.066    1.674   109.5    33.7    20.8
    2001 01 31    03 29.31   +22 28.8    1.211    1.740   104.4    33.3    21.1
    2001 02 10    03 50.82   +22 52.9    1.365    1.807    99.2    32.6    21.4
    2001 02 20    04 11.97   +23 14.0    1.527    1.875    93.9    31.7    21.7
    2001 03 02    04 32.85   +23 30.9    1.694    1.942    88.6    30.7    22.0
    
    Gareth V. Williams           (C) Copyright 2000 MPC           M.P.E.C. 2000-P04
    

    Read MPEC 2000-P03 Read MPEC 2000-P05


    MPEC number:

    Enter an MPEC number in one of the following forms:

    • 1997-B01 (the full form)
    • J97B01 (the packed version of the full form)
    • B01 (the abbreviated form)